Location: Sommers-Bausch Observatory
(40.0037°N, 105.2635°W)
Time: 06:21:53
(UTC-07:00)

Amateur Radio Satellites - All Passes

Search period start: 24 January 2017 05:51
Search period end: 25 January 2017 05:51
Location: Sommers-Bausch Observatory, 40.0037°N, 105.2635°W

Satellite Date Start Highest point End Downlink Frequencies (MHz)
Time Altitude Azimuth
NOAA 18 24 Jan 06:10:40 06:15:26 30° 97° (E) 06:20:10 137.9125
GOMX 1 24 Jan 06:22:07 06:26:04 35° 289° (WNW) 06:29:51 467.674
CUTE-I 24 Jan 06:26:57 06:32:19 83° 104° (ESE) 06:37:41 437.470
HO-68 24 Jan 06:32:49 06:38:03 21° 92° (E) 06:43:14 435.675
CANX-2 24 Jan 06:38:04 06:40:54 17° 92° (E) 06:43:42 2200.000
DOVE 4 24 Jan 06:39:04 06:43:11 61° 285° (WNW) 06:47:16 437.250
BRITE-PL 24 Jan 06:42:49 06:43:46 11° 301° (WNW) 06:44:42 437.365/2234.400
SO-50 24 Jan 06:44:33 06:49:16 79° 121° (ESE) 06:53:57 436.795
PCSat 24 Jan 07:04:34 07:06:46 12° 39° (NE) 07:08:57 145.827
NOAA 15 24 Jan 07:05:27 07:10:27 43° 290° (WNW) 07:15:25 137.62
Cubesat XI-IV 24 Jan 07:11:54 07:16:52 40° 291° (WNW) 07:21:49 437.490
Cosmos 2499 24 Jan 07:16:05 07:22:39 42° 271° (W) 07:29:13 435.465 / 435.565
STRAND 1 24 Jan 07:16:33 07:21:14 37° 262° (W) 07:25:57 437.568
LilacSat-2 24 Jan 07:23:33 07:25:49 15° 293° (WNW) 07:28:04 437.200
GONETS M04 24 Jan 07:26:40 07:35:09 53° 270° (W) 07:43:37
RS-15 24 Jan 07:35:42 07:48:07 72° 55° (NE) 07:59:59 29.354- 29.394
CINEMA 3 24 Jan 07:36:14 07:40:26 66° 285° (WNW) 07:44:47 145.822/145.860
CUTE 1.7 + AOD 2 24 Jan 07:42:26 07:46:45 80° 101° (E) 07:51:02 437.475
NOAA 18 24 Jan 07:51:11 07:56:04 35° 293° (WNW) 08:00:57 137.9125
CUBEBUG 2 24 Jan 08:01:45 08:06:04 53° 100° (E) 08:10:31 437.445
FUNcube-1 24 Jan 08:04:57 08:08:14 20° 94° (E) 08:11:33 145.935
CUTE-I 24 Jan 08:09:09 08:11:38 13° 300° (WNW) 08:14:07 437.470
COMPASS 1 24 Jan 08:11:29 08:15:42 74° 100° (E) 08:19:52 437.405
CANX-2 24 Jan 08:12:53 08:16:53 39° 288° (WNW) 08:20:52 2200.000
SEEDS 24 Jan 08:14:32 08:18:46 66° 284° (WNW) 08:22:57 437.485
AAUSAT CUBESAT 2 24 Jan 08:18:17 08:22:28 66° 102° (ESE) 08:26:35 437.432
HO-68 24 Jan 08:19:11 08:26:19 69° 289° (WNW) 08:33:24 435.675
UWE-3 24 Jan 08:20:57 08:25:19 55° 100° (E) 08:29:46 435.000/436.395/437.385
SO-50 24 Jan 08:27:27 08:30:17 16° 319° (NW) 08:33:07 436.795
JAS-2 24 Jan 08:29:18 08:30:48 11° 53° (NE) 08:32:20 435.910
ZACube-1 24 Jan 08:29:55 08:34:07 41° 98° (E) 08:38:23 437.345
PRISM 24 Jan 08:42:46 08:46:55 76° 256° (WSW) 08:51:07 437.425
PCSat 24 Jan 08:45:47 08:51:13 67° 59° (ENE) 08:56:36 145.827
UNISAT 6 24 Jan 08:50:59 08:54:53 37° 72° (ENE) 08:58:49 437.425
DELFI C3 24 Jan 08:57:31 09:00:32 20° 94° (E) 09:03:32 145.870
Oscar 11 24 Jan 08:58:05 09:02:27 70° 101° (ESE) 09:06:47 145.826/435.025
TIGRISAT 24 Jan 09:02:46 09:06:48 46° 73° (ENE) 09:10:53 435.000
ANTELSAT 24 Jan 09:18:56 09:23:10 77° 76° (ENE) 09:27:27 437.575/2403.000
QB50P2 24 Jan 09:34:12 09:35:25 11° 63° (ENE) 09:36:37 145.880/145.840
HUMSAT D 24 Jan 09:37:56 09:41:53 34° 97° (E) 09:45:49 437.325/437.525
CUBEBUG 2 24 Jan 09:39:52 09:42:17 15° 295° (WNW) 09:44:43 437.445
FUNcube-1 24 Jan 09:40:29 09:44:32 36° 289° (WNW) 09:48:39 145.935
RS-15 24 Jan 09:49:19 09:59:35 33° 256° (WSW) 10:09:30 29.354- 29.394
POPSAT HIP 1 24 Jan 09:52:59 09:55:37 16° 66° (ENE) 09:58:15 437.405
AAUSAT CUBESAT 2 24 Jan 09:56:22 09:57:20 11° 297° (WNW) 09:58:17 437.432
DUCHIFAT 1 24 Jan 09:58:12 10:00:45 16° 66° (ENE) 10:03:20 145.980
UWE-3 24 Jan 09:58:56 10:01:20 14° 295° (WNW) 10:03:45 435.000/436.395/437.385
NANOSAT C BR1 24 Jan 10:05:27 10:08:36 21° 67° (ENE) 10:11:46 145.865
ZACube-1 24 Jan 10:07:01 10:10:06 19° 293° (WNW) 10:13:13 437.345
JAS-2 24 Jan 10:09:14 10:14:37 78° 74° (ENE) 10:20:40 435.910
HO-68 24 Jan 10:09:39 10:12:44 13° 309° (NW) 10:15:48 435.675
BY70-1 24 Jan 10:15:38 10:17:23 14° 92° (E) 10:19:03 436.1900
UNISAT 6 24 Jan 10:28:52 10:31:44 18° 267° (W) 10:34:37 437.425
PCSat 24 Jan 10:30:47 10:34:00 16° 256° (WSW) 10:37:11 145.827
DELFI C3 24 Jan 10:31:55 10:35:20 28° 290° (WNW) 10:38:42 145.870
Oscar 11 24 Jan 10:36:41 10:37:58 11° 297° (WNW) 10:39:15 145.826/435.025
TIGRISAT 24 Jan 10:41:32 10:43:46 14° 268° (W) 10:45:59 435.000
QB50P1 24 Jan 10:59:23 11:03:34 85° 255° (WSW) 11:07:47 145.935-145.965
AISAT 24 Jan 11:02:49 11:04:55 13° 91° (E) 11:07:01 437.250
POLYITAN 1 24 Jan 11:05:03 11:09:12 73° 257° (WSW) 11:13:25 437.675
QB50P2 24 Jan 11:06:29 11:10:39 65° 259° (WSW) 11:14:50 145.880/145.840
HUMSAT D 24 Jan 11:14:05 11:17:14 20° 293° (WNW) 11:20:24 437.325/437.525
POPSAT HIP 1 24 Jan 11:27:06 11:31:03 41° 261° (W) 11:35:01 437.405
SPROUT 24 Jan 11:30:02 11:33:05 19° 94° (E) 11:36:08 437.525
DUCHIFAT 1 24 Jan 11:32:09 11:36:05 41° 261° (W) 11:40:03 145.980
CUSAT 1 24 Jan 11:33:49 11:37:04 13° 56° (NE) 11:40:12 437.405
VELOX 1 24 Jan 11:34:31 11:38:20 28° 96° (E) 11:42:06 145.980
NANOSAT C BR1 24 Jan 11:40:26 11:44:08 30° 263° (W) 11:47:51 145.865
ESTCUBE 1 24 Jan 11:42:21 11:46:53 79° 286° (WNW) 11:51:24 437.505/2401.250
Cosmos 2491 24 Jan 11:42:39 11:50:26 34° 71° (ENE) 11:58:11 435.465 / 435.565
UKube-1 24 Jan 11:43:43 11:45:05 11° 91° (E) 11:46:27 .
BY70-1 24 Jan 11:45:08 11:47:36 21° 291° (WNW) 11:49:55 436.1900
BUGSAT 1 24 Jan 11:48:06 11:52:08 80° 257° (WSW) 11:56:11 437.445
YUBILEINY 24 Jan 11:51:17 11:55:02 13° 75° (ENE) 11:58:49 435.215
DX 1 24 Jan 11:52:02 11:55:17 20° 94° (E) 11:58:31 434.975-435.025
Oscar 19 24 Jan 11:52:59 11:57:32 32° 68° (ENE) 12:02:07 437.125/150
JAS-2 24 Jan 11:58:22 12:00:37 12° 274° (W) 12:02:58 435.910
CUBEBUG 1 24 Jan 12:08:53 12:13:12 68° 284° (WNW) 12:17:27 437.445
AO-85 24 Jan 12:27:46 12:32:27 59° 119° (ESE) 12:36:48 145.980
50 SAT 24 Jan 12:33:19 12:36:51 68° 284° (WNW) 12:40:20 437.505
AISAT 24 Jan 12:37:25 12:41:41 52° 287° (WNW) 12:45:55 437.250
TISAT 1 24 Jan 12:42:12 12:44:49 16° 93° (E) 12:47:25 437.305
Gurwin Techsat 1B 24 Jan 12:42:48 12:47:54 50° 71° (ENE) 12:53:02 435.225
AO-7 24 Jan 12:48:21 12:53:55 20° 51° (NE) 12:59:30 29.400- 29.500
ITAMSAT 1 24 Jan 12:49:09 12:50:51 12° 59° (ENE) 12:52:33 435.822/435.867
SPROUT 24 Jan 13:05:13 13:09:05 34° 289° (WNW) 13:12:57 437.525
DANDE 24 Jan 13:05:55 13:12:23 25° 67° (ENE) 13:18:57 436.750
VELOX 1 24 Jan 13:11:04 13:14:40 25° 292° (WNW) 13:18:13 145.980
CUSAT 1 24 Jan 13:12:49 13:20:44 63° 77° (ENE) 13:27:39 437.405
UKube-1 24 Jan 13:17:13 13:21:29 59° 286° (WNW) 13:25:41 .
AIST 1 24 Jan 13:22:26 13:26:47 90° 226° (SW) 13:31:09
DX 1 24 Jan 13:27:38 13:31:32 33° 290° (WNW) 13:35:24 434.975-435.025
Oscar 19 24 Jan 13:32:16 13:36:48 30° 264° (W) 13:41:22 437.125/150
Cosmos 2491 24 Jan 13:39:07 13:47:33 53° 270° (W) 13:55:59 435.465 / 435.565
YUBILEINY 24 Jan 13:41:26 13:50:14 77° 94° (E) 13:59:04 435.215
BEESAT 24 Jan 13:56:26 14:00:07 22° 94° (E) 14:03:47 436.000
Cosmos 2504 24 Jan 13:58:04 14:06:23 56° 91° (E) 14:14:12 435.465 / 435.565
SWISSCUBE 24 Jan 13:58:20 14:02:20 26° 95° (E) 14:06:18 437.505
AO-85 24 Jan 14:10:03 14:13:09 18° 314° (NW) 14:16:07 145.980
BEESAT 3 24 Jan 14:14:30 14:17:33 22° 112° (ESE) 14:20:38 437.485
O/OREOS (USA 219) 24 Jan 14:15:50 14:19:15 21° 58° (ENE) 14:22:41 437.305
TISAT 1 24 Jan 14:16:41 14:20:35 39° 288° (WNW) 14:24:29 437.305
Gurwin Techsat 1B 24 Jan 14:24:20 14:28:07 20° 267° (W) 14:31:55 435.225
ITAMSAT 1 24 Jan 14:24:21 14:29:31 90° 61° (ENE) 14:34:43 435.822/435.867
BRITE-PL 24 Jan 14:35:40 14:37:48 12° 60° (ENE) 14:39:56 437.365/2234.400
AO-7 24 Jan 14:37:08 14:45:31 85° 71° (ENE) 14:53:57 29.400- 29.500
DANDE 24 Jan 14:47:37 14:55:46 76° 264° (W) 15:03:58 436.750
MOZHAYETS 4 24 Jan 14:48:06 14:51:48 23° 94° (E) 14:55:30
CUSAT 1 24 Jan 14:55:46 15:01:56 26° 277° (W) 15:07:34 437.405
ITUPSAT 1 24 Jan 15:01:47 15:06:37 82° 284° (WNW) 15:11:25 437.325
BEESAT 2 24 Jan 15:08:48 15:12:27 38° 116° (ESE) 15:16:10 435.950
SO-50 24 Jan 15:16:39 15:21:06 56° 55° (NE) 15:25:29 436.795
M-CUBED/EXP-1 PRIME 24 Jan 15:32:20 15:33:28 11° 98° (E) 15:34:36 437.505
BEESAT 24 Jan 15:33:34 15:37:59 38° 290° (WNW) 15:42:24 436.000
SWISSCUBE 24 Jan 15:35:50 15:40:07 33° 291° (WNW) 15:44:22 437.505
YUBILEINY 24 Jan 15:41:21 15:47:57 23° 295° (WNW) 15:54:37 435.215
CUBESAT XI-V 24 Jan 15:47:18 15:49:55 15° 91° (E) 15:52:31 437.345
GOMX 1 24 Jan 15:51:22 15:55:30 24° 68° (ENE) 15:59:29 467.674
BEESAT 3 24 Jan 15:51:33 15:55:00 30° 309° (NW) 15:58:30 437.485
Cosmos 2504 24 Jan 15:52:44 16:00:03 31° 288° (WNW) 16:07:00 435.465 / 435.565
O/OREOS (USA 219) 24 Jan 15:54:36 15:58:47 38° 255° (WSW) 16:02:58 437.305
AUBIESAT-1 24 Jan 16:03:30 16:06:14 24° 102° (ESE) 16:08:58 437.475
DOVE 4 24 Jan 16:08:41 16:10:43 13° 64° (ENE) 16:12:43 437.250
BRITE-PL 24 Jan 16:09:45 16:15:27 84° 75° (ENE) 16:21:01 437.365/2234.400
CUTE-I 24 Jan 16:10:47 16:14:01 17° 61° (ENE) 16:17:15 437.470
MOZHAYETS 4 24 Jan 16:24:49 16:29:00 34° 290° (WNW) 16:33:09
KKS-1 24 Jan 16:29:46 16:34:13 85° 101° (E) 16:38:39 437.445
LilacSat-2 24 Jan 16:30:18 16:32:52 18° 68° (ENE) 16:35:27 437.200
DANDE 24 Jan 16:33:00 16:37:17 15° 280° (W) 16:41:36 436.750
AO-7 24 Jan 16:33:39 16:39:10 19° 269° (W) 16:44:43 29.400- 29.500
HORYU 2 24 Jan 16:36:13 16:40:35 70° 75° (ENE) 16:45:00 437.375
NOAA 15 24 Jan 16:45:31 16:50:17 35° 68° (ENE) 16:55:05 137.62
BEESAT 2 24 Jan 16:47:23 16:50:21 20° 313° (NW) 16:53:23 435.950
Cubesat XI-IV 24 Jan 16:53:32 16:58:25 39° 69° (ENE) 17:03:20 437.490
SO-50 24 Jan 16:58:33 17:01:04 15° 251° (WSW) 17:03:34 436.795
HO-68 24 Jan 17:02:37 17:06:47 17° 54° (NE) 17:10:56 435.675
M-CUBED/EXP-1 PRIME 24 Jan 17:05:09 17:08:08 32° 293° (WNW) 17:11:03 437.505
STARS 24 Jan 17:09:41 17:14:04 78° 285° (WNW) 17:18:26 437.465
CUBESAT XI-V 24 Jan 17:23:03 17:27:36 53° 287° (WNW) 17:32:07 437.345
GOMX 1 24 Jan 17:28:17 17:33:20 42° 262° (W) 17:38:09 467.674
CANX-2 24 Jan 17:31:31 17:33:10 12° 63° (ENE) 17:34:48 2200.000
NOAA 18 24 Jan 17:36:07 17:41:27 55° 71° (ENE) 17:46:47 137.9125
AUBIESAT-1 24 Jan 17:38:21 17:40:31 17° 297° (WNW) 17:42:41 437.475
DOVE 4 24 Jan 17:43:01 17:47:55 70° 259° (W) 17:52:32 437.250
CUTE-I 24 Jan 17:48:14 17:53:29 66° 258° (WSW) 17:58:47 437.470
AIST 2 24 Jan 17:48:48 17:52:37 38° 115° (ESE) 17:56:29 435.215
BRITE-PL 24 Jan 17:51:58 17:54:25 13° 271° (W) 17:56:53 437.365/2234.400
Cosmos 2499 24 Jan 17:59:07 18:05:53 29° 85° (E) 18:12:14 435.465 / 435.565
LilacSat-2 24 Jan 18:03:36 18:06:56 30° 264° (W) 18:10:18 437.200
NOAA 15 24 Jan 18:25:32 18:30:03 29° 264° (W) 18:34:37 137.62
GONETS M04 24 Jan 18:30:37 18:38:25 39° 86° (E) 18:46:16
CUTE 1.7 + AOD 2 24 Jan 18:34:03 18:38:10 49° 74° (ENE) 18:42:19 437.475
Cubesat XI-IV 24 Jan 18:34:14 18:38:34 25° 265° (W) 18:42:57 437.490
CINEMA 3 24 Jan 18:37:00 18:41:21 81° 258° (WSW) 18:45:35 145.822/145.860
HO-68 24 Jan 18:46:13 18:53:26 83° 73° (ENE) 19:00:40 435.675
CUBEBUG 2 24 Jan 18:59:26 19:03:16 38° 72° (ENE) 19:07:07 437.445
FUNcube-1 24 Jan 19:01:05 19:03:11 14° 64° (ENE) 19:05:18 145.935
COMPASS 1 24 Jan 19:01:10 19:05:08 43° 73° (ENE) 19:09:09 437.405
CANX-2 24 Jan 19:04:15 19:08:27 62° 259° (W) 19:12:43 2200.000
SEEDS 24 Jan 19:04:57 19:09:10 75° 76° (ENE) 19:13:25 437.485
AAUSAT CUBESAT 2 24 Jan 19:07:30 19:11:23 38° 72° (ENE) 19:15:17 437.432
UWE-3 24 Jan 19:17:30 19:21:19 37° 72° (ENE) 19:25:10 435.000/436.395/437.385
NOAA 18 24 Jan 19:18:35 19:22:24 19° 267° (W) 19:26:14 137.9125
ISS 24 Jan 19:23:42 19:26:00 18° 131° (SE) 19:28:17 145.825
ZACube-1 24 Jan 19:25:26 19:28:57 27° 70° (ENE) 19:32:31 437.345
STRAND 1 24 Jan 19:27:02 19:32:13 79° 104° (ESE) 19:37:22 437.568
AIST 2 24 Jan 19:27:59 19:31:13 22° 313° (NW) 19:34:29 435.215
DELFI C3 24 Jan 19:43:55 19:45:28 12° 64° (ENE) 19:47:02 145.870
Cosmos 2499 24 Jan 19:50:27 19:58:34 55° 282° (WNW) 20:06:08 435.465 / 435.565
Oscar 11 24 Jan 19:51:53 19:56:02 47° 73° (ENE) 20:00:12 145.826/435.025
CUTE 1.7 + AOD 2 24 Jan 20:12:12 20:14:17 13° 269° (W) 20:16:21 437.475
PRISM 24 Jan 20:26:10 20:28:32 15° 93° (E) 20:30:51 437.425
GONETS M04 24 Jan 20:26:49 20:35:02 45° 285° (WNW) 20:43:23
HUMSAT D 24 Jan 20:28:54 20:32:04 22° 68° (ENE) 20:35:16 437.325/437.525
FUNcube-1 24 Jan 20:34:59 20:38:59 48° 261° (W) 20:43:02 145.935
CUBEBUG 2 24 Jan 20:37:30 20:40:03 16° 268° (W) 20:42:37 437.445
HO-68 24 Jan 20:37:32 20:41:54 17° 270° (W) 20:46:18 435.675
COMPASS 1 24 Jan 20:38:28 20:40:53 15° 268° (W) 20:43:19 437.405
AAUSAT CUBESAT 2 24 Jan 20:44:18 20:46:59 16° 268° (W) 20:49:40 437.432
UWE-3 24 Jan 20:55:21 20:57:56 16° 268° (W) 21:00:32 435.000/436.395/437.385
TIGRISAT 24 Jan 20:57:11 20:58:06 11° 90° (E) 20:59:02 435.000
ISS 24 Jan 20:59:04 21:02:13 47° 327° (NNW) 21:05:23 145.825
AO-85 24 Jan 21:00:03 21:03:42 36° 52° (NE) 21:07:19 145.980
ZACube-1 24 Jan 21:01:58 21:05:13 22° 266° (W) 21:08:31 437.345
STRAND 1 24 Jan 21:08:20 21:10:42 13° 300° (WNW) 21:13:04 437.568
ANTELSAT 24 Jan 21:11:52 21:14:52 17° 93° (E) 21:17:53 437.575/2403.000
DELFI C3 24 Jan 21:15:52 21:19:47 54° 260° (W) 21:23:45 145.870
JAS-2 24 Jan 21:20:11 21:23:49 14° 87° (E) 21:27:31 435.910
Oscar 11 24 Jan 21:30:04 21:32:25 14° 269° (W) 21:34:46 145.826/435.025
BY70-1 24 Jan 21:57:03 22:00:02 46° 74° (ENE) 22:03:12 436.1900
RS-15 24 Jan 21:57:27 22:08:30 49° 109° (ESE) 22:19:59 29.354- 29.394
PRISM 24 Jan 22:00:08 22:04:00 41° 288° (WNW) 22:07:49 437.425
AISAT 24 Jan 22:00:16 22:02:02 12° 62° (ENE) 22:03:46 437.250
HUMSAT D 24 Jan 22:03:55 22:07:30 29° 264° (W) 22:11:09 437.325/437.525
UNISAT 6 24 Jan 22:18:56 22:23:27 87° 286° (WNW) 22:28:03 437.425
SPROUT 24 Jan 22:23:45 22:26:00 14° 64° (ENE) 22:28:14 437.525
TIGRISAT 24 Jan 22:30:43 22:35:11 70° 285° (WNW) 22:39:45 435.000
VELOX 1 24 Jan 22:31:14 22:34:49 24° 68° (ENE) 22:38:24 145.980
BEESAT 3 24 Jan 22:32:08 22:34:20 14° 43° (NE) 22:36:31 437.485
ISS 24 Jan 22:37:33 22:39:19 14° 346° (NNW) 22:41:06 145.825
ESTCUBE 1 24 Jan 22:40:43 22:45:16 86° 74° (ENE) 22:49:50 437.505/2401.250
AO-85 24 Jan 22:41:11 22:43:47 17° 249° (WSW) 22:46:23 145.980
QB50P1 24 Jan 22:45:47 22:48:25 16° 93° (E) 22:51:01 145.935-145.965
DX 1 24 Jan 22:47:21 22:50:15 18° 65° (ENE) 22:53:09 434.975-435.025
ANTELSAT 24 Jan 22:47:28 22:51:43 43° 288° (WNW) 22:56:03 437.575/2403.000
POLYITAN 1 24 Jan 22:51:17 22:54:17 19° 94° (E) 22:57:18 437.675
QB50P2 24 Jan 22:52:34 22:55:46 21° 94° (E) 22:58:58 145.880/145.840
JAS-2 24 Jan 23:02:11 23:09:39 78° 103° (ESE) 23:17:33 435.910
CUBEBUG 1 24 Jan 23:03:35 23:08:00 89° 69° (ENE) 23:12:24 437.445
50 SAT 24 Jan 23:07:00 23:10:20 38° 73° (ENE) 23:13:42 437.505
POPSAT HIP 1 24 Jan 23:12:18 23:16:05 31° 97° (E) 23:19:51 437.405
DUCHIFAT 1 24 Jan 23:16:41 23:20:24 30° 97° (E) 23:24:06 145.980
NANOSAT C BR1 24 Jan 23:24:45 23:28:45 40° 98° (E) 23:32:44 145.865
PCSat 24 Jan 23:26:27 23:31:49 71° 116° (ESE) 23:37:14 145.827
BEESAT 2 24 Jan 23:27:19 23:30:28 21° 47° (NE) 23:33:36 435.950
AIST 1 24 Jan 23:30:51 23:34:01 20° 73° (ENE) 23:37:09
BUGSAT 1 24 Jan 23:31:38 23:33:56 15° 93° (E) 23:36:14 437.445
AISAT 24 Jan 23:33:30 23:37:55 66° 258° (WSW) 23:42:20 437.250
TISAT 1 24 Jan 23:34:27 23:36:00 12° 63° (ENE) 23:37:32 437.305
PHONESAT 2.4 24 Jan 23:45:40 23:47:43 35° 160° (SSE) 23:49:47 2401.200-2431.200
YUBILEINY 24 Jan 23:52:56 00:00:55 37° 72° (ENE) 00:08:48 435.215
Cosmos 2504 24 Jan 23:53:34 23:57:43 16° 63° (ENE) 00:01:47 435.465 / 435.565
SPROUT 24 Jan 23:57:21 00:01:29 50° 260° (W) 00:05:37 437.525
VELOX 1 25 Jan 00:07:13 00:11:07 30° 263° (W) 00:15:02 145.980
Oscar 19 25 Jan 00:07:39 00:08:53 11° 89° (E) 00:10:08 437.125/150
BEESAT 3 25 Jan 00:08:23 00:12:21 65° 241° (WSW) 00:16:18 437.485
RS-15 25 Jan 00:09:16 00:20:53 55° 312° (NW) 00:33:00 29.354- 29.394
UKube-1 25 Jan 00:10:31 00:14:51 79° 258° (WSW) 00:19:11 .
ISS 25 Jan 00:15:45 00:16:55 11° 7° (N) 00:18:05 145.825
QB50P1 25 Jan 00:20:22 00:24:20 41° 288° (WNW) 00:28:19 145.935-145.965
DX 1 25 Jan 00:21:57 00:26:06 42° 261° (W) 00:30:15 434.975-435.025
POLYITAN 1 25 Jan 00:26:17 00:30:10 35° 289° (WNW) 00:34:02 437.675
QB50P2 25 Jan 00:27:50 00:31:35 31° 290° (WNW) 00:35:21 145.880/145.840
ITUPSAT 1 25 Jan 00:33:21 00:35:13 12° 61° (ENE) 00:37:04 437.325
50 SAT 25 Jan 00:42:22 00:43:42 12° 268° (W) 00:45:03 437.505
Cosmos 2491 25 Jan 00:43:12 00:51:00 39° 86° (E) 00:58:50 435.465 / 435.565
POPSAT HIP 1 25 Jan 00:48:27 00:51:40 22° 292° (WNW) 00:54:54 437.405
JAS-2 25 Jan 00:48:30 00:53:58 23° 299° (WNW) 00:59:41 435.910
DUCHIFAT 1 25 Jan 00:52:39 00:55:54 22° 292° (WNW) 00:59:10 145.980
Gurwin Techsat 1B 25 Jan 01:00:24 01:04:21 21° 93° (E) 01:08:16 435.225
NANOSAT C BR1 25 Jan 01:01:26 01:04:08 17° 294° (WNW) 01:06:50 145.865
BEESAT 25 Jan 01:02:16 01:06:02 24° 66° (ENE) 01:09:50 436.000
SWISSCUBE 25 Jan 01:04:09 01:08:10 28° 68° (ENE) 01:12:13 437.505
BEESAT 2 25 Jan 01:04:37 01:08:21 37° 245° (WSW) 01:12:04 435.950
BUGSAT 1 25 Jan 01:05:39 01:09:28 41° 288° (WNW) 01:13:18 437.445
TISAT 1 25 Jan 01:07:00 01:11:06 59° 258° (WSW) 01:15:14 437.305
AIST 1 25 Jan 01:07:54 01:11:39 30° 269° (W) 01:15:21
PCSat 25 Jan 01:11:58 01:15:46 19° 315° (NW) 01:19:36 145.827
PHONESAT 2.4 25 Jan 01:19:08 01:21:20 76° 357° (N) 01:23:32 2401.200-2431.200
Oscar 19 25 Jan 01:43:37 01:48:49 82° 285° (WNW) 01:53:56 437.125/150
Cosmos 2504 25 Jan 01:44:49 01:52:09 86° 264° (W) 01:59:18 435.465 / 435.565
YUBILEINY 25 Jan 01:49:34 01:57:52 48° 272° (W) 02:06:06 435.215
MOZHAYETS 4 25 Jan 01:49:36 01:53:02 21° 66° (ENE) 01:56:28
ISS 25 Jan 01:51:25 01:54:15 27° 26° (NNE) 01:57:04 145.825
ITUPSAT 1 25 Jan 02:07:37 02:12:22 76° 257° (WSW) 02:17:11 437.325
AIST 2 25 Jan 02:10:44 02:14:11 23° 48° (NE) 02:17:37 435.215
CUSAT 1 25 Jan 02:12:09 02:17:35 58° 93° (E) 02:24:29 437.405
DANDE 25 Jan 02:15:58 02:18:12 13° 78° (ENE) 02:20:41 436.750
M-CUBED/EXP-1 PRIME 25 Jan 02:16:28 02:19:30 20° 64° (ENE) 02:22:24 437.505
RS-15 25 Jan 02:27:56 02:37:12 24° 343° (NNW) 02:46:35 29.354- 29.394
ITAMSAT 1 25 Jan 02:38:07 02:42:49 33° 97° (E) 02:47:29 435.822/435.867
BEESAT 25 Jan 02:39:16 02:43:36 35° 262° (W) 02:47:58 436.000
Gurwin Techsat 1B 25 Jan 02:39:25 02:44:31 48° 289° (WNW) 02:49:35 435.225
Cosmos 2491 25 Jan 02:39:28 02:47:39 45° 285° (WNW) 02:55:56 435.465 / 435.565
AO-7 25 Jan 02:40:19 02:47:21 29° 96° (E) 02:54:19 29.400- 29.500
SWISSCUBE 25 Jan 02:41:43 02:45:51 30° 263° (W) 02:50:02 437.505
AUBIESAT-1 25 Jan 02:47:49 02:51:33 34° 67° (ENE) 02:55:04 437.475
CUBESAT XI-V 25 Jan 02:50:21 02:52:55 15° 63° (ENE) 02:55:30 437.345
PHONESAT 2.4 25 Jan 02:52:49 02:55:01 66° 194° (SSW) 02:57:13 2401.200-2431.200
MOZHAYETS 4 25 Jan 03:25:41 03:29:56 37° 263° (W) 03:34:13
Oscar 19 25 Jan 03:26:26 03:27:15 10° 302° (WNW) 03:28:04 437.125/150
KKS-1 25 Jan 03:26:47 03:31:12 72° 75° (ENE) 03:35:38 437.445
ISS 25 Jan 03:27:45 03:30:47 38° 224° (SW) 03:33:49 145.825
Cosmos 2504 25 Jan 03:41:34 03:44:13 12° 283° (WNW) 03:46:50 435.465 / 435.565
AIST 2 25 Jan 03:48:51 03:52:45 36° 245° (WSW) 03:56:37 435.215
M-CUBED/EXP-1 PRIME 25 Jan 03:49:52 03:53:47 35° 256° (WSW) 03:57:28 437.505
CUSAT 1 25 Jan 03:55:33 04:00:12 23° 297° (WNW) 04:05:39 437.405
DANDE 25 Jan 03:55:35 03:59:47 56° 285° (WNW) 04:05:28 436.750
STARS 25 Jan 04:05:13 04:09:35 85° 76° (ENE) 04:13:59 437.465
BRITE-PL 25 Jan 04:16:46 04:20:38 25° 93° (E) 04:24:16 437.365/2234.400
ITAMSAT 1 25 Jan 04:17:41 04:22:09 30° 293° (WNW) 04:26:37 435.822/435.867
AUBIESAT-1 25 Jan 04:23:02 04:25:58 19° 259° (W) 04:28:47 437.475
CUBESAT XI-V 25 Jan 04:25:07 04:29:46 60° 260° (W) 04:34:27 437.345
PHONESAT 2.4 25 Jan 04:27:11 04:28:25 13° 208° (SSW) 04:29:38 2401.200-2431.200
O/OREOS (USA 219) 25 Jan 04:27:32 04:31:10 25° 103° (ESE) 04:34:48 437.305
HORYU 2 25 Jan 04:29:14 04:31:33 14° 92° (E) 04:33:52 437.375
AO-7 25 Jan 04:32:20 04:40:32 61° 294° (WNW) 04:48:39 29.400- 29.500
GONETS M04 25 Jan 04:42:09 04:47:52 18° 62° (ENE) 04:53:33
RS-15 25 Jan 04:46:13 04:55:49 25° 19° (NNE) 05:05:16 29.354- 29.394
NOAA 15 25 Jan 05:02:54 05:05:21 13° 90° (E) 05:07:47 137.62
STRAND 1 25 Jan 05:06:32 05:08:49 13° 60° (ENE) 05:11:06 437.568
Cubesat XI-IV 25 Jan 05:12:26 05:15:39 16° 91° (E) 05:18:53 437.490
GOMX 1 25 Jan 05:30:57 05:35:13 60° 101° (E) 05:39:18 467.674
SO-50 25 Jan 05:30:57 05:34:32 21° 111° (ESE) 05:38:03 436.795
LilacSat-2 25 Jan 05:37:10 05:40:33 28° 96° (E) 05:43:54 437.200
DOVE 4 25 Jan 05:42:54 05:46:30 28° 96° (E) 05:50:07 437.250
